Погода в Могилеве

Погода в Могилеве : погода сейчас, прогноз погоды и архив. Всё, что Вы хотите узнать о погоде в Могилеве!

Поиск расширенной информации на нашем сайте:

Другие новости

Новости СМИ2

Главная страница сайта

Новости сайта

03.07.2017

Напоминаем, что на нашем специализированном сайте Метеоцентр.Азия вы можете получить высокодетализированные автоматические прогнозы погоды по пунктам России, СНГ и мира в авиационном формате (включающие направление и скорость ветра, видимость, явления погоды, количество и форму облачности, нижнюю и верхнюю границу облачности).


Погода в Могилеве - сегодня

Время (UTC), дата Ветер
(°,м/с) 
Видим.   Явления Облачность Т
(°С)
Тd
(°С)
f(%) Тe
(°С)
Pmin
(гПа)
dP
(гПа)
Po
(мм)
O2
(г/м3)
Тmin Tmax R s Состояние
почвы
18 13.12.17 260 (З) 8000 м  дымка  4/0 верхняя 
[Ci sp]
-1.3 -3 88 -2  1014.5  0.2  743  301    +2.6     
21 13.12.17 200 (Ю) 2800 м  дымка  3/0 верхняя 
[Ci sp]
-3.5 -4.3 94 -3  1014.2  -0.5  742  303           
00 14.12.17 140 (ЮВ) 2100 м  дымка  4/0 верхняя 
[Ci sp]
-5.1 -5.8 95 -6  1013.5  0.1  742  305           
03 14.12.17 тихо ()   0300 м  переохл. туман [диам. изморози 9 мм]  ?/?  
-6.9 -6.9 100 -7  1011.9  -1.6  740  307         
06 14.12.17 140 (ЮВ) 0600 м  переохл. туман [диам. изморози 13 мм]  ?/?  
-6.4 -6.4 100 -8  1009.7  -2.1  739  306  -7.4      мокрый или
старый снег
50-90% 
09 14.12.17 130 (ЮВ) 3200 м  дымка{туман} [диам. изморози 10 мм]  9/0 средняя 
[Ac trans]
-4.5 -5.1 96 -6  1008.5  -1  738  303           
12 14.12.17 140 (ЮВ) 2400 м  дымка{туман} [диам. изморози 9 мм]  10/8 120 м средняя 
[Frnb|Ac As]
-1 -1.7 95 -4  1004.9  -3.2  736  298           
15 14.12.17 170 (Ю) 3800 м  дымка [диам. изморози 2 мм]  10/10 120 м 
[St]
-0.4 -1.3 94 -4  1004.5  -0.4  735  297           
18 14.12.17 160 (Ю) 6000 м  дымка  10/10 180 м 
[St]
-0.6 -1.8 92 -4  1003.6  -0.9  735  297    +0     
21 14.12.17 150 (ЮВ) 5000 м  слаб. снег  10/10 150 м 
[Frnb|Ns]
-0.4 -1.6 92 -4  1001.9  -1.7  734  296           
00 15.12.17 170 (Ю) 7{11}  6000 м  слаб. снег  10/10 120 м 
[Frnb|Ns]
+0.4 -0.5 94 -3  1001.9  0.1  734  295           
03 15.12.17 190 (Ю) 8000 м  дымка{снег}  10/10 240 м 
[St]
+1.1 +0 92 -2  1002.2  0.4  734  294       
06 15.12.17 190 (Ю) 8000 м  дымка{снег}  10/10 200 м верхняя 
[Frnb|Cc]
+1.1 -0.6 88 -1    1.9  735  295         
09 15.12.17 160 (Ю) 6000 м  дымка  8/4 300 м верхняя 
[Frnb|Ci sp]
-0.4 -2.2 88 -3  1005.8  1.5  736  297           
12 15.12.17 150 (ЮВ) 6000 м  дымка  10/10 210 м 
[St]
+0.4 -0.9 91 -3  1006.9  1.1  737  297           
15 15.12.17 150 (ЮВ) 6000 м  дымка  10/10 240 м 
[St]
-0.6 -1.8 92 -4  1007.7  0.7  738  298           
18 15.12.17 140 (ЮВ) 6{11}  6000 м  дымка  10/10 150 м 
[St]
-0.4 -1.3 94 -4  1006.9  -0.8  737  298    +1.3     
21 15.12.17 130 (ЮВ) 6{10}  4300 м  слаб. снег  10/10 150 м 
[Frnb|Ns]
+0.3 -0.3 96 -3  1004.5  -2.2  736  296           
00 16.12.17 160 (Ю) 7{11}  4800 м  дымка{снег}  10/10 150 м 
[St]
+0.5 -0.1 96 -3  1003.1  -1.4  734  295           
03 16.12.17 170 (Ю) 4600 м  в посл. час снег  10/10 150 м 
[St]
+1.5 +1 96 -1  1003  734  294       
06 16.12.17 160 (Ю) 0600 м  слаб. морось{снег}  ?/?  
+1 +1 100 -1  1003.4  0.4  735  295  -0.4    мокрый или
старый снег
50-90% 
09 16.12.17 090 (В) 0900 м  слаб. дождь{морось}  ?/?  
+1.2 +1.2 100 +1  1003  -0.4  734  294           
12 16.12.17 060 (СВ) 0600 м  слаб. дождь{морось}  ?/?  
+1.9 +1.9 100 999.7  -3.1  732  293           
15 16.12.17 060 (СВ) 2400 м  слаб. дождь{туман}  10/10 60 м 
[Frnb|Ns]
+1.6 +1.3 98 +1  997.7  -2.1  731  292         
18 16.12.17 320 (СЗ) 2500 м  слаб. дождь{туман}  10/10 100 м 
[Frnb|Ns]
+1.4 +1.1 98 +1  997.2  -0.5  730  292    +2.1   
Время (UTC), дата Ветер
(°,м/с) 
Видим.   Явления Облачность Т
(°С)
Тd
(°С)
f(%) Тe
(°С)
Pmin
(гПа)
dP
(гПа)
Po
(мм)
O2
(г/м3)
Тmin Tmax R s Состояние
почвы

Для получения пояснительной информации подведите курсор к названию столбца.

ПОГОДА в Могилеве - архив

Всё, что Вы хотите узнать о погоде в Могилеве - удобно и подробно!

Выберите нужную дату (начиная с 1 января 2015* года) и нажмите кнопку "Найти".
Будут отображены архивные сводки погоды по пункту Могилев, начиная с указанной даты.


Отображать данные в формате CSV (для использования в таблицах Excel)


Внимание! Наш архив погоды предназначен исключительно для личного некоммерческого использования в познавательных целях. Если Вам необходимы официальные справки о состоянии погоды (для производственных, юридических, коммерческих и т.п. целей), обращайтесь в органы Росгидромета.

*Примечание: данная дата относится к архиву по метеостанциям СССР (Россия, СНГ, Балтия).
Архив по метеостанциям Зарубежной Европы и Азии (кроме Китая) хранится 10 дней, по другим регионам земного шара (Китай, Африка, Америка, Австралия, Океания) - 1 день.

Могилев - район местоположения метеостанции


Название, широта, долгота, высота метеостанции:
Могилев 53.9°ш. 30.1°д. 192 м над ур. моря [Беларусь]

Дополнительная информация

В oтличие oт бoльшинства пoгoдных сайтoв мы публикуем пoдрoбную метеoинфoрмацию в детальнoм прoфессиoнальнoм фoрмате.

Характеристики температуры и влажнoсти вoздуха измеряются на высoте 2 м в тени вдали oт зданий и деревьев.
Скoрoсть ветра измеряется на высoте 10 м (на урoвне рoста челoвека скoрoсть ветра ниже в 1.5-2 раза). Если метеoстанция нахoдится в гoрoде или в лесу, тo скoрoсть ветра занижена на 2-4 м/с пo сравнению с oткрытым местoм. Скoрoсть ветра над акватoриями крупных рек и oзёр, а также на вершинах хoлмoв на 2-5 м/с выше, чем в oбычных услoвиях.
Атмoсфернoе давление в разных тoчках местнoсти мoжет значительнo oтличаться oт давления на метеoстанции, в зависимoсти oт услoвий рельефа (при пoдъёме на 10 м давление пoнижается примернo на 1 мм рт.ст.).